TimeCDT,TemperatureF,Dew PointF,Humidity,Sea Level PressureIn,VisibilityMPH,Wind Direction,Wind SpeedMPH,Gust SpeedMPH,PrecipitationIn,Events,Conditions,WindDirDegrees,DateUTC
12:53 AM,73.9,73.0,97,29.94,6.0,NW,3.5,-,0.01,,Clear,310,2013-07-25 05:53:00
1:53 AM,73.0,73.0,100,29.94,7.0,Calm,Calm,-,N/A,,Clear,0,2013-07-25 06:53:00
2:25 AM,73.4,71.6,94,29.94,2.5,Calm,Calm,-,N/A,,Partly Cloudy,0,2013-07-25 07:25:00
2:30 AM,73.4,71.6,94,29.94,1.0,Calm,Calm,-,N/A,,Mist,0,2013-07-25 07:30:00
2:39 AM,73.4,73.4,100,29.94,2.0,Calm,Calm,-,N/A,,Partly Cloudy,0,2013-07-25 07:39:00
2:53 AM,73.0,72.0,96,29.95,5.0,Calm,Calm,-,N/A,,Partly Cloudy,0,2013-07-25 07:53:00
3:23 AM,73.4,71.6,94,29.95,5.0,Calm,Calm,-,N/A,,Mostly Cloudy,0,2013-07-25 08:23:00
3:34 AM,73.4,71.6,94,29.95,1.5,Calm,Calm,-,N/A,,Overcast,0,2013-07-25 08:34:00
3:43 AM,73.4,71.6,94,29.95,0.8,Calm,Calm,-,N/A,,Overcast,0,2013-07-25 08:43:00
3:50 AM,73.4,73.4,100,29.95,2.0,Calm,Calm,-,N/A,,Overcast,0,2013-07-25 08:50:00
3:53 AM,73.0,73.0,100,29.96,4.0,Calm,Calm,-,N/A,,Overcast,0,2013-07-25 08:53:00
4:44 AM,73.4,71.6,94,29.96,1.5,Calm,Calm,-,N/A,,Overcast,0,2013-07-25 09:44:00
4:53 AM,73.0,73.0,100,29.97,0.5,Calm,Calm,-,N/A,Fog,Fog,0,2013-07-25 09:53:00
5:05 AM,73.4,73.4,100,29.97,0.2,Calm,Calm,-,N/A,Fog,Fog,0,2013-07-25 10:05:00
5:14 AM,73.4,73.4,100,29.97,0.2,Calm,Calm,-,N/A,Fog,Fog,0,2013-07-25 10:14:00
5:53 AM,73.0,73.0,100,29.99,0.2,Calm,Calm,-,N/A,Fog,Fog,0,2013-07-25 10:53:00
6:40 AM,73.4,73.4,100,29.99,0.2,Calm,Calm,-,N/A,Fog,Fog,0,2013-07-25 11:40:00
6:53 AM,73.0,73.0,100,30.01,0.2,NW,3.5,-,N/A,Fog,Fog,320,2013-07-25 11:53:00
7:14 AM,73.4,73.4,100,30.00,0.5,Calm,Calm,-,N/A,Fog,Fog,0,2013-07-25 12:14:00
7:53 AM,73.9,73.9,100,30.01,1.2,Calm,Calm,-,N/A,,Overcast,0,2013-07-25 12:53:00
8:07 AM,73.4,73.4,100,30.01,0.8,Calm,Calm,-,N/A,,Overcast,0,2013-07-25 13:07:00
8:12 AM,73.4,73.4,100,30.01,2.0,Calm,Calm,-,N/A,,Overcast,0,2013-07-25 13:12:00
8:30 AM,73.4,73.4,100,30.01,4.0,Calm,Calm,-,N/A,,Overcast,0,2013-07-25 13:30:00
8:53 AM,75.9,75.0,97,30.03,8.0,Calm,Calm,-,N/A,,Scattered Clouds,0,2013-07-25 13:53:00
9:53 AM,82.0,73.0,74,30.04,10.0,Calm,Calm,-,N/A,,Clear,0,2013-07-25 14:53:00
10:53 AM,84.9,73.0,67,30.04,10.0,NE,4.6,-,N/A,,Clear,50,2013-07-25 15:53:00
11:53 AM,87.1,73.0,63,30.06,10.0,North,3.5,-,N/A,,Partly Cloudy,350,2013-07-25 16:53:00
12:53 PM,89.1,72.0,57,30.04,10.0,East,5.8,-,N/A,,Clear,80,2013-07-25 17:53:00
1:53 PM,91.0,72.0,53,30.04,10.0,Variable,3.5,-,N/A,,Clear,0,2013-07-25 18:53:00
2:53 PM,91.0,70.0,50,30.03,10.0,ESE,3.5,-,N/A,,Partly Cloudy,110,2013-07-25 19:53:00
3:53 PM,91.9,70.0,48,30.01,10.0,NE,6.9,-,N/A,,Mostly Cloudy,40,2013-07-25 20:53:00
4:53 PM,93.0,70.0,47,30.01,10.0,NNE,4.6,-,N/A,,Clear,20,2013-07-25 21:53:00
5:53 PM,91.9,69.1,47,30.00,10.0,NNE,4.6,-,N/A,,Clear,20,2013-07-25 22:53:00
6:53 PM,90.0,72.0,55,30.00,10.0,NNE,3.5,-,N/A,,Clear,20,2013-07-25 23:53:00
7:53 PM,86.0,72.0,63,30.00,10.0,ENE,4.6,-,N/A,,Clear,60,2013-07-26 00:53:00
8:53 PM,84.0,72.0,67,30.00,10.0,ENE,4.6,-,N/A,,Clear,70,2013-07-26 01:53:00
9:53 PM,81.0,72.0,74,30.01,10.0,SSE,3.5,-,N/A,,Clear,160,2013-07-26 02:53:00
10:53 PM,80.1,72.0,76,30.03,10.0,Calm,Calm,-,N/A,,Clear,0,2013-07-26 03:53:00
11:53 PM,79.0,72.0,79,30.04,10.0,Calm,Calm,-,N/A,,Clear,0,2013-07-26 04:53:00